Theta_e
345 343 348 349 351 352 352 352 350 351 349 350 349 349 348 347 347 345 340 340 339 343 347 349 350 351 352 352 351 348 346 346 346 347 346 346 346 348
339 342 344 344 345 349 351 351 351 350 349 349 350 350 350 349 349 349 346 344 343 342 347 345 348 350 351 351 350 349 347 346 345 344 347 346 347 347
336 336 337 336 337 341 344 347 349 351 347 350 350 350 350 350 349 349 348 344 341 340 343 347 348 349 350 350 349 347 346 345 345 345 346 347 347 348
331 330 329 330 331 332 339 339 340 347 349 348 350 350 350 350 349 349 348 349 348 347 347 350 349 349 347 347 349 348 346 345 345 345 346 345 344 346
327 329 330 331 331 333 335 336 340 342 345 347 348 349 350 350 349 348 348 349 350 349 349 349 350 351 351 349 346 345 347 345 345 347 345 343 342 342
330 332 333 333 334 333 333 337 340 343 345 346 346 345 346 346 347 348 348 347 348 348 349 350 350 350 349 350 347 347 346 346 346 346 346 343 342 342
332 334 334 334 335 335 335 337 338 339 341 343 343 344 345 345 345 346 347 345 345 346 347 348 349 349 348 347 347 345 346 345 345 347 347 346 344 343
330 333 335 335 335 335 335 336 337 336 336 339 340 341 342 343 344 345 345 346 343 345 348 347 345 346 348 348 344 336 345 349 347 343 343 347 347 344
329 334 332 331 331 332 332 333 333 333 336 339 340 340 341 341 340 342 342 343 344 342 343 340 338 341 342 344 345 347 348 348 344 335 338 341 345 347
329 331 331 328 329 329 330 331 331 332 332 333 335 337 338 338 339 340 338 336 335 335 341 343 342 343 343 345 345 346 347 347 344 344 345 342 346 346
325 328 324 325 327 329 330 328 330 331 332 334 335 336 335 336 337 338 337 336 337 339 338 336 340 336 334 334 344 340 338 344 346 346 346 346 347 346
322 323 323 326 329 329 327 326 328 329 332 333 333 332 330 330 332 333 336 336 335 334 334 334 337 336 336 337 336 335 334 340 340 339 340 344 345 345
322 321 322 325 328 328 326 325 324 326 327 327 326 327 326 328 328 330 329 330 331 333 330 332 336 335 338 338 336 333 335 332 333 336 338 339 340 341
319 320 321 322 324 324 323 321 322 324 324 323 322 322 320 321 320 321 321 325 328 325 324 322 325 323 327 331 332 327 326 330 336 337 338 337 337 338
319 320 322 320 320 320 319 318 316 316 316 316 315 316 315 314 314 315 315 317 316 319 316 314 312 313 315 320 323 323 328 331 327 324 324 326 330 336
319 318 319 319 319 316 314 319 317 314 314 315 315 313 311 312 311 311 310 312 311 310 310 311 312 314 314 315 318 318 315 317 314 313 313 317 321 324
316 316 315 316 316 313 312 313 311 311 311 312 311 311 310 310 309 309 309 309 308 308 308 309 310 311 312 314 314 311 309 308 309 310 311 313 312 314
311 314 316 315 314 313 313 312 312 311 310 311 311 310 310 309 308 308 308 308 307 307 306 305 308 307 307 309 309 309 308 307 308 307 307 308 309 309
312 312 313 313 312 312 312 312 312 311 312 311 311 310 309 308 306 306 306 306 306 306 306 305 305 306 304 305 306 308 307 307 307 306 307 307 307 307
313 313 313 311 312 312 312 312 311 311 311 312 311 311 309 308 307 306 306 306 306 306 306 306 306 305 305 304 305 306 307 307 307 307 306 307 307 307
312 313 312 312 312 312 312 312 311 311 311 311 311 311 309 308 307 306 305 305 306 306 305 305 306 306 305 305 305 305 305 306 306 306 306 306 306 307
312 313 312 311 311 311 311 311 311 311 310 310 310 311 310 308 308 307 307 305 305 305 305 304 305 305 305 305 305 305 305 305 305 305 305 305 306 308
313 313 312 311 311 310 310 311 312 311 310 310 310 310 310 309 309 308 307 306 305 304 304 304 304 304 304 305 305 305 304 304 305 305 305 305 305 305
Wind_Speed
8 8 10 12 12 12 12 13 6 3 3 6 6 7 12 12 11 20 24 25 25 15 15 24 23 22 26 29 30 32 31 30 29 26 27 27 26 25
9 9 8 9 11 11 11 10 10 10 3 6 11 14 10 14 18 21 22 21 23 21 21 23 25 23 25 27 29 31 31 31 30 28 31 29 28 28
9 9 10 11 11 11 12 12 12 10 6 14 17 19 19 20 21 22 21 19 22 25 24 22 26 22 22 26 27 29 29 31 30 31 30 31 30 29
13 15 15 15 14 13 12 14 13 12 9 11 17 19 20 19 19 21 22 23 24 25 24 21 20 19 20 23 27 25 25 27 29 29 31 30 29 31
13 13 13 13 14 12 12 15 14 13 11 9 11 14 16 17 18 19 20 21 21 23 22 21 23 23 24 25 26 23 24 23 26 29 32 32 29 29
13 14 16 15 13 14 14 12 12 13 9 8 11 13 14 15 13 14 17 16 16 15 15 18 20 20 20 23 27 25 23 24 26 28 31 35 35 32
17 17 19 17 15 11 9 10 12 12 10 9 9 12 15 16 15 11 13 17 18 17 15 17 20 21 24 23 22 24 27 29 30 29 29 32 34 35
16 18 16 15 12 10 10 9 9 12 14 11 11 10 16 17 18 18 12 10 4 9 5 15 16 14 16 21 20 20 21 21 20 23 30 34 34 34
12 11 14 16 17 17 16 14 12 12 8 10 15 15 15 17 16 15 15 11 11 16 14 15 16 19 17 18 20 21 21 21 22 21 23 24 29 32
11 10 13 18 20 21 19 17 16 14 14 11 11 12 12 14 10 12 9 9 11 8 7 5 10 11 11 10 11 15 18 19 21 22 21 24 22 21
10 10 16 17 17 16 15 18 20 19 15 11 9 11 14 14 7 8 7 5 3 4 5 6 5 11 12 11 5 10 11 11 12 14 15 16 15 22
10 11 16 13 12 9 13 17 18 19 18 12 12 13 16 16 15 16 7 3 3 4 8 14 8 8 6 4 12 14 18 12 15 13 10 10 10 13
9 11 13 12 10 9 10 14 15 12 11 12 14 15 16 18 18 14 13 9 8 3 15 12 8 10 4 6 9 12 14 20 18 15 14 14 13 16
7 10 10 11 10 9 10 11 11 10 11 13 16 17 18 17 17 13 13 11 9 12 14 17 8 13 10 5 5 16 18 15 15 16 15 15 15 15
6 7 4 10 12 10 10 11 14 16 15 17 17 17 17 16 16 15 13 10 15 15 13 17 18 17 10 8 9 11 11 9 15 18 20 17 15 15
5 7 6 5 8 10 12 7 12 14 16 15 13 15 17 20 21 20 20 14 15 18 16 17 18 15 15 13 10 10 15 10 21 24 26 25 21 17
7 6 8 6 8 10 10 12 11 12 13 13 13 15 16 17 18 18 18 18 17 19 22 23 19 15 15 10 9 14 17 22 25 24 25 26 30 25
7 5 7 7 5 5 7 8 9 9 11 8 9 11 12 14 15 16 15 14 16 18 19 21 21 22 17 7 7 15 22 23 23 29 28 21 25 31
4 4 5 2 2 2 5 6 6 8 7 7 7 6 8 11 14 17 16 16 16 16 17 17 18 15 4 3 10 7 22 23 28 24 23 25 26 30
6 4 5 4 3 2 5 5 6 6 7 7 6 4 5 8 10 12 12 14 17 19 19 18 17 16 8 6 11 23 18 19 25 25 27 27 31 34
6 7 6 6 6 7 7 7 7 7 9 8 8 8 7 8 9 12 14 16 17 19 20 21 24 21 21 19 14 19 21 22 25 27 29 25 28 31
17 14 13 10 9 9 10 11 12 9 9 10 11 10 12 12 14 16 19 19 21 22 26 28 26 24 22 18 18 22 25 27 29 31 29 26 25 8
20 19 18 13 12 11 13 15 16 14 13 12 13 15 16 18 18 19 22 22 23 25 25 25 21 21 22 24 23 24 27 26 26 30 31 28 30 32
Wind_Direction
3 350 344 339 327 321 309 286 228 284 280 287 267 258 249 257 273 260 262 269 274 275 270 281 264 256 253 249 242 242 244 244 241 240 242 240 239 237
357 360 4 357 353 350 333 321 293 258 254 263 280 290 268 261 283 280 275 271 264 264 263 273 268 256 254 253 249 246 245 246 247 246 244 243 242 241
350 347 339 339 341 345 1 343 328 314 243 287 285 289 285 280 281 279 279 272 259 251 270 255 266 262 261 253 252 249 246 247 249 250 246 244 243 242
332 329 326 326 324 328 341 343 338 323 304 282 299 294 290 290 291 285 281 281 278 278 285 277 271 259 256 262 255 250 251 250 250 245 243 245 247 245
335 334 333 333 332 334 327 330 337 323 309 302 307 312 303 297 297 293 287 288 285 284 283 272 274 270 257 239 241 246 248 251 252 245 244 244 251 247
356 349 341 337 329 328 325 337 336 333 310 304 307 306 306 308 306 297 300 298 300 298 287 277 270 264 265 257 238 246 246 249 249 248 247 246 249 251
360 359 354 345 346 342 341 335 338 340 331 304 295 299 298 301 302 301 298 309 307 303 288 277 270 264 251 246 249 252 246 243 246 252 252 249 249 249
4 2 15 13 3 349 343 326 321 322 313 308 310 288 292 293 295 293 296 296 302 294 319 299 304 284 280 266 258 256 259 252 250 264 264 259 251 248
9 17 13 8 360 351 346 341 338 334 322 306 293 293 294 309 308 294 294 288 276 294 303 292 292 288 285 275 274 277 278 270 274 277 266 270 260 251
19 15 359 359 358 354 353 357 1 6 2 356 338 342 322 314 291 285 296 301 301 307 335 260 303 305 318 299 294 288 286 282 277 275 280 267 277 257
8 11 352 350 345 355 2 6 7 12 11 23 50 75 50 36 344 272 296 335 323 300 345 333 343 336 322 314 344 12 357 339 303 301 288 277 265 261
359 7 359 353 352 5 11 7 9 15 28 44 41 33 30 34 36 41 54 70 3 332 19 354 324 351 321 324 335 332 338 351 344 326 319 309 275 266
356 360 2 3 19 13 4 6 3 359 21 33 33 32 37 47 49 42 34 37 36 345 9 347 326 334 277 295 312 339 346 337 338 332 326 318 310 299
339 343 356 7 3 2 2 6 15 26 38 36 35 33 31 31 29 43 40 49 50 46 32 36 26 9 354 334 345 338 350 1 356 350 349 338 331 323
349 345 360 22 24 27 36 44 42 40 45 48 44 42 40 43 44 43 44 66 62 57 41 25 14 356 360 355 326 340 354 357 2 359 350 350 348 338
21 27 6 4 13 18 40 49 47 47 44 41 41 51 48 46 46 42 42 37 27 21 24 23 10 5 353 346 342 15 6 357 345 345 340 332 331 333
360 8 18 37 18 33 48 58 52 39 34 45 52 44 38 36 37 34 34 31 33 15 10 7 9 8 13 29 28 9 356 346 342 345 343 330 313 315
313 318 321 330 2 36 44 34 27 29 32 38 45 44 41 33 24 21 19 19 14 6 5 5 355 355 355 328 337 340 340 336 334 332 332 319 309 308
291 301 302 298 117 30 18 4 4 4 355 1 14 26 17 16 17 11 4 358 351 346 347 353 355 358 340 313 310 309 327 322 321 319 318 310 299 300
332 277 281 266 233 296 333 329 332 334 343 342 322 295 331 347 353 352 347 333 325 322 316 318 324 329 304 279 300 305 320 305 313 310 309 306 298 299
277 238 230 242 260 261 281 283 295 311 319 318 308 280 277 291 309 325 329 330 318 316 310 306 314 314 308 299 293 294 301 304 304 299 301 301 297 299
253 247 243 263 271 268 267 279 272 285 295 302 302 293 262 272 291 308 322 316 314 310 307 309 310 306 297 275 278 287 295 302 302 301 293 280 280 279
239 243 238 256 256 261 269 273 262 266 278 289 290 289 273 270 289 302 310 309 304 306 305 301 303 300 290 276 272 276 284 290 302 304 295 292 292 289